SCP
1 1 1 1 1 1 1 1 1 1 0 0 1 1 2 2 2 2 1 1 1 1 1 1 1 1 1 1 1 1 1 1 1 1 1 1 0 0 1 1 1 1 1
1 1 1 1 1 1 1 1 1 0 0 0 1 1 1 1 1 1 1 1 1 1 1 1 1 1 1 1 1 1 1 1 1 1 1 1 1 1 1 1 1 1 1
1 1 1 1 1 1 1 1 1 0 0 0 0 1 1 1 1 1 1 1 1 1 1 1 1 1 1 1 1 1 1 1 1 1 1 1 1 1 1 1 1 1 1
1 1 1 1 1 1 1 1 1 0 0 0 0 0 1 1 1 1 1 1 1 1 1 1 1 1 1 1 1 1 1 1 1 1 0 0 1 1 1 1 1 1 1
1 1 1 1 1 1 1 1 1 1 1 0 0 1 1 1 1 1 1 1 1 1 1 1 1 1 1 1 1 1 1 1 1 1 0 0 1 1 1 1 1 1 1
1 1 1 1 1 1 1 1 1 1 1 1 1 1 1 1 1 1 1 1 1 1 1 1 1 1 1 1 1 1 1 1 1 1 1 1 1 1 1 1 1 1 1
1 1 1 1 1 1 1 1 1 1 1 1 1 1 1 1 1 1 1 1 1 1 1 1 1 1 1 1 1 1 1 1 1 1 1 1 1 1 1 1 1 1 1
1 1 1 1 1 1 1 1 1 1 1 1 1 1 1 1 1 1 1 1 1 1 1 1 1 1 1 1 1 1 1 1 1 1 1 1 1 1 1 1 1 1 1
1 1 1 1 1 1 1 1 1 0 0 0 0 1 1 1 1 1 1 1 1 1 1 1 1 1 1 1 1 1 1 1 1 1 1 1 1 1 1 1 1 1 1
1 1 1 1 1 1 0 0 0 0 0 0 0 0 1 1 1 1 2 1 1 1 1 1 1 1 1 1 1 1 1 1 1 1 1 1 1 1 1 1 1 1 1
1 1 1 1 1 0 0 0 0 0 0 0 1 1 1 1 1 1 1 1 1 1 1 1 1 1 1 1 1 1 1 1 1 1 1 1 1 1 1 1 1 0 0
1 1 1 1 1 1 1 1 0 0 0 0 1 1 1 1 1 1 1 1 1 1 1 1 1 1 0 1 1 1 1 1 0 0 1 1 1 1 1 1 1 1 1
1 1 1 1 1 1 1 1 1 1 1 1 1 1 1 1 1 1 1 1 1 2 2 2 1 1 1 1 1 1 1 1 0 0 0 0 1 1 1 1 1 1 1
1 2 2 2 2 1 1 1 1 1 1 1 1 1 1 1 1 1 1 1 2 2 3 3 2 1 1 1 1 1 1 1 0 0 0 0 0 1 1 1 1 1 1
1 2 2 3 2 2 2 2 1 1 1 1 1 1 2 2 2 2 2 2 2 3 4 4 3 2 2 2 1 1 1 1 0 0 0 0 0 0 1 1 1 1 0
2 2 2 3 3 3 3 3 3 2 2 2 2 2 2 2 2 2 2 3 3 4 4 5 4 3 3 3 2 2 1 1 1 0 0 0 0 0 0 0 0 0 0
3 3 3 3 4 4 5 5 4 4 3 3 3 3 3 3 3 3 3 4 5 5 6 6 5 5 4 4 2 2 2 1 1 1 0 0 0 0 0 0 0 0 0
5 5 5 5 5 5 6 6 6 5 5 5 4 4 3 3 4 4 4 5 6 6 6 6 6 5 5 4 3 2 2 1 1 1 0 0 0 0 0 0 0 0 0
6 7 7 7 7 7 7 7 7 7 7 6 6 5 4 4 4 4 5 5 6 6 6 6 5 4 4 4 3 3 2 2 2 1 0 0 0 0 0 0 0 0 0
7 8 9 10 10 10 10 10 10 9 9 9 8 7 6 5 5 5 5 5 5 5 5 5 4 4 4 4 4 3 3 3 2 1 1 1 1 0 0 0 0 0 0
8 9 10 11 12 12 11 12 12 13 13 13 12 10 8 6 5 4 4 5 5 5 5 5 4 4 4 5 5 4 3 3 3 3 2 1 1 1 1 0 0 0 0
9 9 11 12 13 12 11 11 14 18 19 19 18 16 12 7 5 4 3 3 4 5 5 5 5 5 5 6 7 6 5 5 5 5 4 2 2 1 1 1 0 0 0
11 11 12 13 13 12 8 8 13 21 25 25 25 23 18 12 7 5 4 3 3 3 4 5 5 5 5 6 8 8 8 8 8 7 6 4 2 2 1 1 0 0 0
14 14 14 14 14 12 7 5 11 22 30 30 28 25 21 16 11 7 5 4 3 3 3 3 4 5 5 5 7 9 10 11 11 10 8 5 4 3 2 1 1 0 0
16 17 16 15 14 12 6 3 8 21 29 29 26 21 17 14 10 6 4 4 4 3 2 2 3 4 4 4 5 7 9 10 11 10 8 7 6 5 4 2 1 0 0
17 19 18 15 14 12 7 2 7 19 26 27 23 17 13 10 7 4 4 4 4 3 2 2 2 3 4 4 4 6 8 9 10 9 8 7 7 7 5 3 1 1 0
Wind_Speed
2 3 2 1 1 1 2 2 2 2 1 0 0 1 2 1 2 1 4 8 6 4 4 5 5 5 5 5 6 8 8 9 10 9 10 9 10 10 10 10 10 9 9
2 1 1 1 1 1 1 1 2 2 1 1 1 2 1 1 2 1 1 6 7 4 3 3 4 4 5 6 6 7 7 8 9 9 9 10 10 9 9 10 10 10 9
2 1 1 1 1 1 2 1 1 1 1 1 1 2 2 1 2 2 1 1 3 6 5 2 3 3 4 5 6 5 5 6 7 8 8 9 9 9 9 9 9 9 9
1 1 1 1 1 1 2 2 1 1 1 1 1 1 1 2 2 1 1 1 1 1 5 4 1 1 3 5 5 6 6 6 7 7 8 8 8 8 8 8 8 9 9
1 0 1 2 0 1 1 0 2 1 1 1 2 2 1 2 2 2 2 2 2 1 1 5 3 1 1 2 3 4 5 5 6 7 8 8 8 7 8 8 8 8 9
1 0 2 1 0 1 1 2 2 1 1 1 1 3 2 2 2 2 1 2 2 2 3 2 2 4 4 3 1 0 1 3 4 5 6 7 8 8 8 8 8 8 9
2 0 1 1 0 1 1 1 1 2 2 1 1 2 2 2 2 2 2 2 2 3 3 3 3 3 3 6 6 4 3 3 2 2 3 4 6 7 7 7 8 8 8
1 1 1 1 1 1 1 1 0 0 1 1 1 1 2 3 2 2 2 2 2 2 2 3 4 3 3 3 6 5 4 3 2 1 2 2 3 5 5 5 7 7 7
1 2 1 1 1 0 2 1 1 0 0 1 1 2 1 2 2 3 3 2 2 1 1 2 3 3 3 3 3 6 5 4 3 2 2 2 3 4 4 4 5 6 7
1 1 1 1 1 1 1 1 2 0 1 0 1 1 2 2 1 1 3 3 2 1 2 1 2 3 3 3 5 7 6 5 4 3 3 3 4 4 3 3 4 5 5
1 1 1 1 1 1 1 2 1 1 1 1 0 0 0 1 2 1 1 2 2 2 1 1 1 2 2 3 3 7 7 6 6 5 5 4 4 4 4 3 3 3 4
2 2 1 1 0 1 1 1 0 1 1 2 2 1 1 1 1 1 1 1 1 2 1 1 0 1 1 2 5 7 6 5 5 5 5 4 4 4 4 3 3 3 3
2 1 1 0 0 1 1 0 1 1 0 1 1 1 1 1 1 1 1 0 1 1 2 2 1 1 1 2 4 4 5 4 4 3 3 3 3 3 3 3 3 3 3
1 2 1 1 0 0 1 1 0 1 0 1 1 2 2 1 1 1 1 1 2 2 2 2 2 1 1 1 4 3 4 4 3 2 2 2 2 3 3 3 3 2 2
1 2 1 1 1 1 0 1 0 0 0 1 1 1 2 1 1 1 2 2 3 2 1 2 2 2 2 1 3 2 2 5 3 2 2 2 2 2 2 2 2 2 2
1 2 2 2 1 1 1 2 2 1 1 1 1 1 2 2 1 1 2 2 3 3 2 0 1 2 1 2 4 2 2 7 4 3 3 2 2 2 2 2 3 3 3
3 3 2 2 2 2 2 2 2 1 2 1 2 1 2 2 2 2 2 2 2 2 2 1 1 2 2 3 2 3 3 3 4 6 4 3 3 3 2 2 2 2 3
4 4 3 3 3 3 2 3 3 2 2 2 2 2 2 2 2 3 2 2 2 2 3 2 1 2 3 3 3 4 3 3 2 8 7 6 5 4 4 3 3 3 3
5 4 4 4 3 3 3 3 3 3 3 3 3 3 2 2 3 2 3 2 2 3 3 3 2 2 2 3 3 4 3 3 4 6 9 8 7 6 5 5 5 4 4
5 5 5 5 4 4 4 4 4 4 4 3 3 3 3 3 3 3 3 3 3 3 3 4 3 3 3 3 3 3 4 4 4 3 4 5 8 9 8 8 7 6 6
6 5 5 5 5 5 4 4 4 4 4 4 3 3 3 2 2 3 3 3 3 4 4 4 4 3 3 3 4 4 3 3 3 3 3 4 6 6 7 9 9 8 7
6 6 6 6 6 4 3 3 4 4 4 4 4 4 4 4 5 5 5 4 4 5 5 4 4 4 3 4 3 4 4 4 3 3 4 4 4 5 5 5 8 10 10
6 6 6 6 6 4 4 5 5 5 5 4 4 4 4 3 5 5 6 8 7 7 6 7 6 5 5 4 4 6 5 5 5 3 4 5 4 5 4 4 9 11 11
6 6 6 6 6 5 6 6 6 7 6 5 5 5 5 5 4 5 6 6 6 7 7 7 7 7 6 4 5 6 6 6 5 4 4 5 5 5 5 4 9 12 12
6 6 6 6 6 5 6 7 7 6 6 6 5 5 6 6 3 4 7 6 6 5 6 7 6 6 5 5 5 5 5 5 5 4 4 5 5 5 5 5 6 12 12
6 6 5 6 6 6 6 7 8 6 5 5 5 5 5 5 4 5 7 6 7 6 6 6 7 8 8 7 8 7 6 6 5 4 3 5 5 4 4 4 4 6 8
Wind_Direction
103 98 82 76 105 118 151 156 122 111 95 97 24 60 34 38 42 52 117 132 147 164 186 192 199 210 211 217 225 226 224 221 216 212 211 214 212 214 215 210 209 206 206
90 93 125 110 98 120 104 128 114 129 149 91 52 64 43 49 76 40 73 135 147 159 180 201 203 206 212 216 224 232 231 228 219 217 216 215 216 219 219 216 213 211 208
103 118 106 143 101 108 119 121 112 147 166 135 104 82 85 60 67 63 47 76 136 146 151 166 207 224 225 222 224 233 227 225 218 219 219 215 217 219 222 220 219 213 207
132 162 127 91 96 131 133 138 159 136 92 89 88 61 85 98 87 75 66 77 44 108 140 137 174 243 239 233 231 230 226 219 214 216 218 216 217 217 217 219 218 209 206
127 152 69 63 172 117 106 106 93 45 96 87 105 94 77 80 86 80 65 60 67 51 74 126 136 77 298 252 242 233 232 221 215 217 218 215 216 215 209 209 212 210 208
100 47 121 86 84 104 99 80 94 89 82 105 79 79 73 79 73 74 66 81 71 62 57 44 112 104 79 47 15 323 242 218 209 212 213 211 214 215 210 210 211 212 212
85 53 66 110 61 87 55 98 121 138 124 120 141 122 121 107 78 75 57 54 77 67 56 42 36 30 97 95 64 55 54 71 113 185 203 210 211 210 211 217 216 212 207
89 128 71 111 76 96 103 96 120 327 120 162 274 225 171 147 131 84 82 84 63 70 73 66 60 44 21 53 81 67 56 51 63 123 168 170 177 190 200 215 207 204 206
99 50 66 37 53 44 91 119 154 178 189 157 328 319 322 55 109 111 86 78 71 64 72 84 79 60 46 48 71 74 48 36 39 69 135 153 151 161 175 190 198 199 200
83 83 71 67 29 51 88 183 104 249 268 206 148 328 345 11 315 119 130 117 110 90 51 28 71 76 57 60 66 60 54 45 44 53 90 117 127 136 145 174 191 196 199
94 76 80 72 80 71 61 31 74 323 287 317 334 133 133 201 270 280 119 133 123 103 91 69 54 64 65 61 67 69 62 53 48 53 69 85 94 106 113 120 136 158 176
130 106 106 86 89 69 89 72 91 134 1 352 325 332 314 305 312 311 296 181 129 113 112 88 155 113 102 91 76 75 69 59 49 51 61 70 83 96 104 109 115 122 137
138 112 82 112 84 99 102 82 149 26 40 350 301 303 313 317 310 305 272 243 191 160 156 185 177 165 143 121 103 107 101 76 58 55 65 74 82 89 93 105 117 124 134
113 101 128 149 129 126 122 119 197 157 161 271 300 316 293 303 298 275 272 264 238 191 172 171 161 173 155 149 103 208 121 104 83 73 70 77 91 97 105 113 122 124 130
164 145 162 161 154 142 142 203 116 307 241 259 254 220 266 285 270 273 253 264 277 277 202 151 185 158 189 145 135 190 142 117 123 115 104 95 96 106 108 111 122 130 135
191 187 184 183 185 189 197 224 211 167 240 254 292 326 296 288 286 266 270 268 275 286 296 106 185 154 169 182 153 199 161 145 155 148 140 129 122 122 120 117 118 118 122
196 205 205 203 205 209 201 204 239 205 232 242 247 232 255 297 291 270 246 245 256 266 262 258 173 129 184 239 172 209 205 209 160 158 162 163 160 159 157 152 144 142 141
206 202 207 209 212 211 209 214 229 222 227 231 242 247 253 241 249 271 265 260 255 253 257 255 220 175 196 218 215 230 223 215 201 153 171 182 186 182 180 184 184 176 172
207 207 203 210 218 219 218 220 225 230 235 237 239 244 253 257 254 254 257 257 249 231 237 241 226 199 211 204 214 226 232 238 239 170 179 190 194 193 194 196 199 198 197
207 209 209 214 216 219 220 220 218 224 233 238 241 243 248 249 251 256 243 243 253 254 239 246 234 214 210 198 228 231 219 209 235 218 193 191 186 194 200 202 204 204 203
210 208 210 214 214 213 215 216 218 218 225 230 228 231 232 243 284 275 279 256 243 251 246 240 237 231 222 211 232 239 245 230 219 235 224 209 198 203 196 201 206 206 203
214 211 214 218 219 218 157 195 235 229 229 228 230 234 224 214 221 220 246 265 273 258 264 262 253 253 248 243 248 255 254 250 244 211 235 236 225 223 212 204 180 189 201
208 211 217 221 223 212 177 195 222 233 232 231 231 239 251 225 223 233 215 218 230 242 258 268 273 272 264 254 253 249 248 257 266 246 237 249 237 239 233 198 173 187 199
207 210 215 220 223 213 187 197 213 224 234 230 230 231 239 244 239 255 248 238 234 224 228 241 261 267 270 266 251 253 258 248 250 245 235 255 248 244 240 216 182 192 201
210 211 210 214 219 215 188 196 216 223 226 229 231 233 241 240 220 248 250 251 250 241 217 227 250 258 267 253 256 259 249 248 250 239 216 245 254 254 245 233 195 191 202
210 214 209 214 219 221 189 194 216 232 229 230 220 220 219 244 217 228 245 250 253 256 255 230 226 233 237 226 219 242 253 253 258 252 214 235 251 253 250 236 221 199 207